START_TIME,STEP,MOV.,M34,t_acc.,L5,t_acc.,L18,t_acc.,L14,t_acc.
1979-07-17 09:00:24.710 ,0,0,0.,12.0,0.,12.0,0.,12.0,0.,12.0
1979-07-17 09:00:36.710 ,0,0,0.,12.0,0.,12.0,0.,12.0,0.,12.0
1979-07-17 09:00:48.710 ,0,1,0.,12.0,0.,12.0,0.,12.0,0.,12.0
1979-07-17 09:01:00.710 ,0,1,0.,12.0,0.,12.0,0.,12.0,0.,12.0
1979-07-17 09:01:12.710 ,0,0,0.,12.0,0.,12.0,0.,12.0,0.,12.0
1979-07-17 09:01:24.710 ,0,0,0.,12.0,0.,12.0,0.,12.0,0.,12.0
1979-07-17 09:01:36.710 ,1,1,0.,12.0,0.,12.0,0.,12.0,0.,12.0
1979-07-17 09:01:48.710 ,1,1,0.,12.0,0.,12.0,0.,12.0,0.,12.0
1979-07-17 09:02:00.710 ,1,0,0.,12.0,0.,12.0,0.,12.0,0.,12.0
1979-07-17 09:02:12.710 ,1,0,0.,12.0,0.,12.0,0.,12.0,0.,12.0
1979-07-17 09:02:24.710 ,2,1,0.,12.0,0.,12.0,0.,12.0,0.,12.0
1979-07-17 09:02:36.710 ,2,1,0.,12.0,0.,12.0,0.,12.0,0.,12.0
1979-07-17 09:02:48.710 ,2,0,1.,12.0,0.,12.0,0.,12.0,0.,12.0
1979-07-17 09:03:00.710 ,2,0,0.,12.0,0.,12.0,0.,12.0,0.,12.0
1979-07-17 09:03:12.710 ,3,1,0.,12.0,0.,12.0,0.,12.0,0.,12.0
1979-07-17 09:03:24.710 ,3,1,0.,12.0,0.,12.0,0.,12.0,0.,12.0
1979-07-17 09:03:36.710 ,3,0,2.,12.0,0.,12.0,0.,12.0,0.,12.0
1979-07-17 09:03:48.710 ,3,0,1.,12.0,0.,12.0,0.,12.0,0.,12.0
1979-07-17 09:04:00.710 ,4,1,0.,12.0,0.,12.0,0.,12.0,0.,12.0
1979-07-17 09:04:12.710 ,4,1,0.,12.0,0.,12.0,0.,12.0,0.,12.0
1979-07-17 09:04:24.710 ,4,0,0.,12.0,0.,12.0,0.,12.0,0.,12.0
1979-07-17 09:04:36.710 ,4,0,0.,12.0,0.,12.0,0.,12.0,0.,12.0
1979-07-17 09:04:48.710 ,5,1,0.,12.0,0.,12.0,0.,12.0,0.,12.0
1979-07-17 09:05:00.710 ,5,1,0.,12.0,0.,12.0,0.,12.0,0.,12.0
1979-07-17 09:05:12.710 ,5,0,0.,12.0,0.,12.0,0.,12.0,0.,12.0
1979-07-17 09:05:24.710 ,5,0,0.,12.0,0.,12.0,0.,12.0,0.,12.0
1979-07-17 09:05:36.710 ,6,1,0.,12.0,0.,12.0,0.,12.0,0.,12.0
1979-07-17 09:05:48.710 ,6,1,0.,12.0,0.,12.0,0.,12.0,0.,12.0
1979-07-17 09:06:00.710 ,6,0,,0,,0,,0,,0
1979-07-17 09:06:12.710 ,6,0,0.,12.0,0.,12.0,0.,12.0,0.,12.0
1979-07-17 09:06:24.710 ,7,0,0.,12.0,0.,12.0,0.,12.0,0.,12.0
1979-07-17 09:06:36.710 ,7,0,0.,12.0,0.,12.0,0.,12.0,0.,12.0
1979-07-17 09:06:48.710 ,7,0,0.,12.0,0.,12.0,0.,12.0,1.,12.0
1979-07-17 09:07:00.710 ,7,0,0.,12.0,0.,12.0,0.,12.0,0.,12.0
1979-07-17 09:07:12.710 ,4,1,0.,12.0,0.,12.0,0.,12.0,0.,12.0
1979-07-17 09:07:24.710 ,4,1,0.,12.0,0.,12.0,0.,12.0,0.,12.0
1979-07-17 09:07:36.710 ,0,1,0.,12.0,0.,12.0,0.,12.0,0.,12.0
1979-07-17 09:07:48.710 ,0,1,0.,12.0,0.,12.0,0.,12.0,0.,12.0
1979-07-17 09:08:00.710 ,3,1,0.,12.0,0.,12.0,0.,12.0,0.,12.0
1979-07-17 09:08:12.710 ,3,1,0.,12.0,0.,12.0,0.,12.0,0.,12.0
1979-07-17 09:08:24.710 ,7,1,0.,12.0,0.,12.0,0.,12.0,0.,12.0
1979-07-17 09:08:36.710 ,7,1,0.,12.0,0.,12.0,0.,12.0,0.,12.0
1979-07-17 09:08:48.710 ,4,1,0.,12.0,0.,12.0,0.,12.0,0.,12.0
1979-07-17 09:09:00.710 ,4,1,0.,12.0,0.,12.0,0.,12.0,0.,12.0
1979-07-17 09:09:12.710 ,0,1,0.,12.0,0.,12.0,0.,12.0,0.,12.0
1979-07-17 09:09:24.710 ,0,1,0.,12.0,0.,12.0,0.,12.0,0.,12.0
1979-07-17 09:09:36.710 ,3,1,0.,12.0,0.,12.0,0.,12.0,0.,12.0
1979-07-17 09:09:48.710 ,3,1,0.,12.0,0.,12.0,0.,12.0,0.,12.0
1979-07-17 09:10:00.710 ,7,1,0.,12.0,0.,12.0,0.,12.0,0.,12.0
1979-07-17 09:10:12.710 ,7,1,0.,12.0,0.,12.0,0.,12.0,0.,12.0
1979-07-17 09:10:24.710 ,4,1,0.,12.0,0.,12.0,0.,12.0,0.,12.0
1979-07-17 09:10:36.710 ,4,1,0.,12.0,0.,12.0,0.,12.0,0.,12.0
1979-07-17 09:10:48.710 ,0,1,0.,12.0,0.,12.0,0.,12.0,0.,12.0
1979-07-17 09:11:00.710 ,0,1,0.,12.0,0.,12.0,0.,12.0,0.,12.0
1979-07-17 09:11:12.710 ,3,1,0.,12.0,0.,12.0,0.,12.0,0.,12.0
1979-07-17 09:11:24.710 ,3,1,0.,12.0,0.,12.0,0.,12.0,0.,12.0
1979-07-17 09:11:36.710 ,7,1,0.,12.0,0.,12.0,0.,12.0,0.,12.0
1979-07-17 09:11:48.710 ,7,1,0.,12.0,0.,12.0,0.,12.0,0.,12.0
1979-07-17 09:12:00.710 ,4,1,0.,12.0,0.,12.0,0.,12.0,0.,12.0
1979-07-17 09:12:12.710 ,4,1,1.,12.0,0.,12.0,0.,12.0,0.,12.0
1979-07-17 09:12:24.710 ,0,1,0.,12.0,0.,12.0,0.,12.0,0.,12.0
1979-07-17 09:12:36.710 ,0,1,0.,12.0,0.,12.0,0.,12.0,0.,12.0
1979-07-17 09:12:48.710 ,3,1,0.,12.0,0.,12.0,0.,12.0,0.,12.0
1979-07-17 09:13:00.710 ,3,1,0.,12.0,0.,12.0,0.,12.0,0.,12.0
1979-07-17 09:13:12.710 ,7,1,0.,12.0,0.,12.0,0.,12.0,0.,12.0
1979-07-17 09:13:24.710 ,7,1,0.,12.0,0.,12.0,0.,12.0,0.,12.0
1979-07-17 09:13:36.710 ,4,1,0.,12.0,0.,12.0,0.,12.0,0.,12.0
1979-07-17 09:13:48.710 ,4,1,0.,12.0,0.,12.0,0.,12.0,0.,12.0
1979-07-17 09:14:00.710 ,0,1,0.,12.0,0.,12.0,0.,12.0,0.,12.0
1979-07-17 09:14:12.710 ,0,1,0.,12.0,0.,12.0,0.,12.0,0.,12.0
1979-07-17 09:14:24.710 ,3,1,0.,12.0,0.,12.0,0.,12.0,0.,12.0
1979-07-17 09:14:36.710 ,3,1,0.,12.0,0.,12.0,0.,12.0,0.,12.0
1979-07-17 09:14:48.710 ,7,1,0.,12.0,0.,12.0,0.,12.0,0.,12.0
1979-07-17 09:15:00.710 ,7,1,0.,12.0,0.,12.0,0.,12.0,0.,12.0
1979-07-17 09:15:12.710 ,4,1,0.,12.0,0.,12.0,0.,12.0,0.,12.0
1979-07-17 09:15:24.710 ,4,1,0.,12.0,0.,12.0,0.,12.0,0.,12.0
1979-07-17 09:15:36.710 ,0,1,0.,12.0,0.,12.0,0.,12.0,0.,12.0
1979-07-17 09:15:48.710 ,0,1,0.,12.0,0.,12.0,0.,12.0,0.,12.0
1979-07-17 09:16:00.710 ,3,1,1.,12.0,0.,12.0,0.,12.0,0.,12.0
1979-07-17 09:16:12.710 ,3,1,0.,12.0,0.,12.0,0.,12.0,0.,12.0
1979-07-17 09:16:24.710 ,7,1,0.,12.0,0.,12.0,0.,12.0,0.,12.0
1979-07-17 09:16:36.710 ,7,1,0.,12.0,0.,12.0,0.,12.0,0.,12.0
1979-07-17 09:16:48.710 ,4,1,0.,12.0,0.,12.0,0.,12.0,0.,12.0
1979-07-17 09:17:00.710 ,4,1,0.,12.0,0.,12.0,0.,12.0,0.,12.0
1979-07-17 09:17:12.700 ,0,1,0.,12.0,0.,12.0,0.,12.0,0.,12.0
1979-07-17 09:17:24.700 ,0,1,0.,12.0,0.,12.0,0.,12.0,0.,12.0
1979-07-17 09:17:36.700 ,0,0,0.,12.0,0.,12.0,0.,12.0,0.,12.0
1979-07-17 09:17:48.700 ,0,0,0.,12.0,0.,12.0,0.,12.0,0.,12.0
1979-07-17 09:18:00.700 ,0,0,0.,12.0,0.,12.0,0.,12.0,0.,12.0
1979-07-17 09:18:12.700 ,0,0,0.,12.0,0.,12.0,0.,12.0,0.,12.0
1979-07-17 09:18:24.700 ,5,1,0.,12.0,0.,12.0,0.,12.0,0.,12.0
1979-07-17 09:18:36.700 ,5,1,0.,12.0,0.,12.0,0.,12.0,0.,12.0
1979-07-17 09:18:48.700 ,5,0,1.,12.0,0.,12.0,0.,12.0,0.,12.0
1979-07-17 09:19:00.700 ,5,0,0.,12.0,0.,12.0,0.,12.0,0.,12.0
1979-07-17 09:19:12.700 ,4,1,0.,12.0,0.,12.0,0.,12.0,0.,12.0
1979-07-17 09:19:24.700 ,4,1,0.,12.0,0.,12.0,0.,12.0,0.,12.0
1979-07-17 09:19:36.700 ,4,0,0.,12.0,0.,12.0,0.,12.0,0.,12.0
1979-07-17 09:19:48.700 ,4,0,0.,12.0,0.,12.0,0.,12.0,0.,12.0
1979-07-17 09:20:00.700 ,3,1,0.,12.0,0.,12.0,0.,12.0,0.,12.0
1979-07-17 09:20:12.700 ,3,1,0.,12.0,0.,12.0,0.,12.0,0.,12.0
1979-07-17 09:20:24.700 ,3,0,0.,12.0,0.,12.0,0.,12.0,0.,12.0
1979-07-17 09:20:36.700 ,3,0,0.,12.0,0.,12.0,0.,12.0,0.,12.0
1979-07-17 09:20:48.700 ,2,1,0.,12.0,0.,12.0,0.,12.0,0.,12.0
1979-07-17 09:21:00.700 ,2,1,0.,12.0,0.,12.0,0.,12.0,0.,12.0
1979-07-17 09:21:12.700 ,2,0,0.,12.0,0.,12.0,0.,12.0,0.,12.0
1979-07-17 09:21:24.700 ,2,0,0.,12.0,0.,12.0,0.,12.0,0.,12.0
1979-07-17 09:21:36.700 ,1,1,0.,12.0,0.,12.0,0.,12.0,0.,12.0
1979-07-17 09:21:48.700 ,1,1,0.,12.0,0.,12.0,0.,12.0,0.,12.0
1979-07-17 09:22:00.700 ,1,0,0.,12.0,0.,12.0,0.,12.0,0.,12.0
1979-07-17 09:22:12.700 ,1,0,0.,12.0,0.,12.0,0.,12.0,0.,12.0
1979-07-17 09:22:24.700 ,0,1,0.,12.0,0.,12.0,0.,12.0,0.,12.0
1979-07-17 09:22:36.700 ,0,1,0.,12.0,0.,12.0,0.,12.0,0.,12.0
1979-07-17 09:22:48.700 ,0,0,0.,12.0,0.,12.0,0.,12.0,0.,12.0
1979-07-17 09:23:00.700 ,0,0,0.,12.0,0.,12.0,0.,12.0,0.,12.0
1979-07-17 09:23:12.700 ,0,1,0.,12.0,0.,12.0,0.,12.0,0.,12.0
1979-07-17 09:23:24.700 ,0,1,0.,12.0,0.,12.0,0.,12.0,0.,12.0
1979-07-17 09:23:36.700 ,0,0,0.,12.0,0.,12.0,0.,12.0,0.,12.0
1979-07-17 09:23:48.700 ,0,0,0.,12.0,0.,12.0,0.,12.0,0.,12.0
1979-07-17 09:24:00.700 ,1,1,0.,12.0,0.,12.0,0.,12.0,0.,12.0
1979-07-17 09:24:12.700 ,1,1,0.,12.0,0.,12.0,0.,12.0,0.,12.0
1979-07-17 09:24:24.700 ,1,0,0.,12.0,0.,12.0,0.,12.0,0.,12.0
1979-07-17 09:24:36.700 ,1,0,0.,12.0,0.,12.0,0.,12.0,0.,12.0
1979-07-17 09:24:48.700 ,2,1,0.,12.0,0.,12.0,0.,12.0,0.,12.0
1979-07-17 09:25:00.700 ,2,1,0.,12.0,0.,12.0,0.,12.0,0.,12.0
1979-07-17 09:25:12.700 ,2,0,0.,12.0,0.,12.0,0.,12.0,0.,12.0
1979-07-17 09:25:24.700 ,2,0,0.,12.0,0.,12.0,0.,12.0,0.,12.0
1979-07-17 09:25:36.700 ,3,1,0.,12.0,0.,12.0,0.,12.0,0.,12.0
1979-07-17 09:25:48.700 ,3,1,1.,12.0,0.,12.0,0.,12.0,0.,12.0
1979-07-17 09:26:00.700 ,3,0,0.,12.0,0.,12.0,0.,12.0,0.,12.0
1979-07-17 09:26:12.700 ,3,0,0.,12.0,0.,12.0,0.,12.0,0.,12.0
1979-07-17 09:26:24.700 ,4,1,0.,12.0,0.,12.0,0.,12.0,0.,12.0
1979-07-17 09:26:36.700 ,4,1,0.,12.0,0.,12.0,0.,12.0,0.,12.0
1979-07-17 09:26:48.700 ,4,0,0.,12.0,0.,12.0,0.,12.0,0.,12.0
1979-07-17 09:27:00.700 ,4,0,0.,12.0,0.,12.0,0.,12.0,0.,12.0
1979-07-17 09:27:12.700 ,5,1,0.,12.0,0.,12.0,0.,12.0,0.,12.0
1979-07-17 09:27:24.700 ,5,1,1.,12.0,0.,12.0,0.,12.0,0.,12.0
1979-07-17 09:27:36.700 ,5,0,0.,12.0,0.,12.0,0.,12.0,0.,12.0
1979-07-17 09:27:48.700 ,5,0,0.,12.0,0.,12.0,0.,12.0,0.,12.0
1979-07-17 09:28:00.700 ,6,1,0.,12.0,0.,12.0,0.,12.0,0.,12.0
1979-07-17 09:28:12.700 ,6,1,1.,12.0,0.,12.0,0.,12.0,0.,12.0
1979-07-17 09:28:24.700 ,6,0,0.,12.0,0.,12.0,0.,12.0,0.,12.0
1979-07-17 09:28:36.700 ,6,0,0.,12.0,0.,12.0,0.,12.0,0.,12.0
1979-07-17 09:28:48.700 ,7,1,0.,12.0,0.,12.0,0.,12.0,0.,12.0
1979-07-17 09:29:00.700 ,7,1,0.,12.0,0.,12.0,0.,12.0,0.,12.0
1979-07-17 09:29:12.700 ,7,0,0.,12.0,0.,12.0,0.,12.0,0.,12.0
1979-07-17 09:29:24.700 ,7,0,0.,12.0,0.,12.0,0.,12.0,0.,12.0
1979-07-17 09:29:36.700 ,7,1,0.,12.0,0.,12.0,0.,12.0,0.,12.0
1979-07-17 09:29:48.700 ,7,1,0.,12.0,0.,12.0,0.,12.0,0.,12.0
1979-07-17 09:30:00.700 ,7,0,0.,12.0,0.,12.0,0.,12.0,0.,12.0
1979-07-17 09:30:12.700 ,7,0,0.,12.0,0.,12.0,0.,12.0,0.,12.0
1979-07-17 09:30:24.700 ,6,1,0.,12.0,0.,12.0,0.,12.0,0.,12.0
1979-07-17 09:30:36.700 ,6,1,0.,12.0,0.,12.0,0.,12.0,0.,12.0
1979-07-17 09:30:48.700 ,6,0,0.,12.0,0.,12.0,0.,12.0,0.,12.0
1979-07-17 09:31:00.700 ,6,0,0.,12.0,0.,12.0,0.,12.0,0.,12.0
1979-07-17 09:31:12.700 ,5,1,0.,12.0,0.,12.0,0.,12.0,0.,12.0
1979-07-17 09:31:24.700 ,5,1,0.,12.0,0.,12.0,0.,12.0,0.,12.0
1979-07-17 09:31:36.700 ,5,0,0.,12.0,0.,12.0,0.,12.0,0.,12.0
1979-07-17 09:31:48.700 ,5,0,0.,12.0,0.,12.0,0.,12.0,0.,12.0
1979-07-17 09:32:00.700 ,4,1,0.,12.0,0.,12.0,0.,12.0,0.,12.0
1979-07-17 09:32:12.700 ,4,1,0.,12.0,0.,12.0,0.,12.0,0.,12.0
1979-07-17 09:32:24.700 ,0,0,0.,12.0,0.,12.0,0.,12.0,0.,12.0
1979-07-17 09:32:36.700 ,0,0,0.,12.0,0.,12.0,0.,12.0,0.,12.0
1979-07-17 09:32:48.700 ,3,1,1.,12.0,0.,12.0,0.,12.0,0.,12.0
1979-07-17 09:33:00.700 ,3,1,0.,12.0,0.,12.0,0.,12.0,0.,12.0
1979-07-17 09:33:12.700 ,3,0,0.,12.0,0.,12.0,0.,12.0,0.,12.0
1979-07-17 09:33:24.700 ,3,0,0.,12.0,0.,12.0,0.,12.0,0.,12.0
1979-07-17 09:33:36.700 ,2,1,0.,12.0,0.,12.0,0.,12.0,0.,12.0
1979-07-17 09:33:48.700 ,2,1,0.,12.0,0.,12.0,0.,12.0,0.,12.0
1979-07-17 09:34:00.700 ,2,0,0.,12.0,0.,12.0,0.,12.0,0.,12.0
1979-07-17 09:34:12.700 ,2,0,0.,12.0,0.,12.0,0.,12.0,0.,12.0
1979-07-17 09:34:24.700 ,1,1,0.,12.0,0.,12.0,0.,12.0,0.,12.0
1979-07-17 09:34:36.700 ,1,1,0.,12.0,0.,12.0,0.,12.0,0.,12.0
1979-07-17 09:34:48.700 ,1,0,0.,12.0,0.,12.0,0.,12.0,0.,12.0
1979-07-17 09:35:00.700 ,1,0,0.,12.0,0.,12.0,0.,12.0,0.,12.0
1979-07-17 09:35:12.700 ,0,1,0.,12.0,0.,12.0,0.,12.0,0.,12.0
1979-07-17 09:35:24.700 ,0,1,0.,12.0,0.,12.0,0.,12.0,0.,12.0
1979-07-17 09:35:36.700 ,0,0,0.,12.0,0.,12.0,0.,12.0,0.,12.0
1979-07-17 09:35:48.700 ,0,0,0.,12.0,0.,12.0,0.,12.0,0.,12.0
1979-07-17 09:36:00.700 ,0,1,0.,12.0,0.,12.0,0.,12.0,0.,12.0
1979-07-17 09:36:12.700 ,0,1,0.,12.0,0.,12.0,0.,12.0,0.,12.0
1979-07-17 09:36:24.700 ,0,0,0.,12.0,0.,12.0,0.,12.0,0.,12.0
1979-07-17 09:36:36.700 ,0,0,1.,12.0,0.,12.0,0.,12.0,0.,12.0
1979-07-17 09:36:48.700 ,1,1,0.,12.0,0.,12.0,0.,12.0,0.,12.0
1979-07-17 09:37:00.700 ,1,1,0.,12.0,0.,12.0,0.,12.0,0.,12.0
1979-07-17 09:37:12.700 ,1,0,0.,12.0,0.,12.0,0.,12.0,0.,12.0
1979-07-17 09:37:24.700 ,1,0,1.,12.0,0.,12.0,0.,12.0,0.,12.0
1979-07-17 09:37:36.700 ,2,1,0.,12.0,0.,12.0,0.,12.0,0.,12.0
1979-07-17 09:37:48.700 ,2,1,0.,12.0,0.,12.0,0.,12.0,0.,12.0
1979-07-17 09:38:00.700 ,2,0,0.,12.0,0.,12.0,0.,12.0,0.,12.0
1979-07-17 09:38:12.700 ,2,0,0.,12.0,0.,12.0,0.,12.0,0.,12.0
1979-07-17 09:38:24.700 ,3,1,0.,12.0,0.,12.0,0.,12.0,0.,12.0
1979-07-17 09:38:36.700 ,3,1,0.,12.0,0.,12.0,0.,12.0,0.,12.0
1979-07-17 09:38:48.700 ,3,0,0.,12.0,0.,12.0,0.,12.0,0.,12.0
1979-07-17 09:39:00.700 ,3,0,0.,12.0,0.,12.0,0.,12.0,0.,12.0
1979-07-17 09:39:12.700 ,4,1,0.,12.0,0.,12.0,0.,12.0,0.,12.0
1979-07-17 09:39:24.700 ,4,1,0.,12.0,0.,12.0,0.,12.0,0.,12.0
1979-07-17 09:39:36.700 ,4,0,0.,12.0,0.,12.0,0.,12.0,0.,12.0
1979-07-17 09:39:48.700 ,4,0,0.,12.0,0.,12.0,0.,12.0,0.,12.0
1979-07-17 09:40:00.700 ,5,1,0.,12.0,0.,12.0,0.,12.0,0.,12.0
1979-07-17 09:40:12.700 ,5,1,0.,12.0,0.,12.0,0.,12.0,0.,12.0
1979-07-17 09:40:24.700 ,5,0,0.,12.0,0.,12.0,0.,12.0,0.,12.0
1979-07-17 09:40:36.700 ,5,0,0.,12.0,0.,12.0,0.,12.0,0.,12.0
1979-07-17 09:40:48.700 ,6,1,0.,12.0,0.,12.0,0.,12.0,0.,12.0
1979-07-17 09:41:00.700 ,6,1,1.,12.0,0.,12.0,0.,12.0,0.,12.0
1979-07-17 09:41:12.700 ,6,0,0.,12.0,0.,12.0,0.,12.0,0.,12.0
1979-07-17 09:41:24.700 ,6,0,0.,12.0,0.,12.0,0.,12.0,0.,12.0
1979-07-17 09:41:36.700 ,7,1,0.,12.0,0.,12.0,0.,12.0,0.,12.0
1979-07-17 09:41:48.700 ,7,1,0.,12.0,0.,12.0,0.,12.0,0.,12.0
1979-07-17 09:42:00.700 ,7,0,0.,12.0,0.,12.0,0.,12.0,0.,12.0
1979-07-17 09:42:12.700 ,7,0,0.,12.0,0.,12.0,0.,12.0,0.,12.0
1979-07-17 09:42:24.700 ,7,1,0.,12.0,0.,12.0,0.,12.0,0.,12.0
1979-07-17 09:42:36.700 ,7,1,0.,12.0,0.,12.0,0.,12.0,0.,12.0
1979-07-17 09:42:48.700 ,7,0,0.,12.0,0.,12.0,0.,12.0,0.,12.0
1979-07-17 09:43:00.700 ,7,0,0.,12.0,0.,12.0,0.,12.0,0.,12.0
1979-07-17 09:43:12.700 ,6,1,0.,12.0,0.,12.0,0.,12.0,0.,12.0
1979-07-17 09:43:24.700 ,6,1,1.,12.0,0.,12.0,0.,12.0,0.,12.0
1979-07-17 09:43:36.700 ,6,0,1.,12.0,0.,12.0,0.,12.0,0.,12.0
1979-07-17 09:43:48.700 ,6,0,0.,12.0,0.,12.0,0.,12.0,0.,12.0
1979-07-17 09:44:00.700 ,5,1,0.,12.0,0.,12.0,0.,12.0,0.,12.0
1979-07-17 09:44:12.700 ,5,1,0.,12.0,0.,12.0,0.,12.0,0.,12.0
1979-07-17 09:44:24.700 ,5,0,0.,12.0,0.,12.0,0.,12.0,0.,12.0
1979-07-17 09:44:36.700 ,5,0,0.,12.0,0.,12.0,0.,12.0,0.,12.0
1979-07-17 09:44:48.700 ,4,1,0.,12.0,0.,12.0,0.,12.0,0.,12.0
1979-07-17 09:45:00.700 ,4,1,0.,12.0,0.,12.0,0.,12.0,0.,12.0
1979-07-17 09:45:12.700 ,4,0,0.,12.0,0.,12.0,0.,12.0,0.,12.0
1979-07-17 09:45:24.700 ,4,0,0.,12.0,0.,12.0,0.,12.0,0.,12.0
1979-07-17 09:45:36.700 ,3,1,0.,12.0,0.,12.0,0.,12.0,0.,12.0
1979-07-17 09:45:48.700 ,3,1,0.,12.0,0.,12.0,0.,12.0,0.,12.0
1979-07-17 09:46:00.700 ,3,0,0.,12.0,0.,12.0,0.,12.0,0.,12.0
1979-07-17 09:46:12.700 ,3,0,0.,12.0,0.,12.0,0.,12.0,0.,12.0
1979-07-17 09:46:24.700 ,2,1,1.,12.0,0.,12.0,0.,12.0,1.,12.0
1979-07-17 09:46:36.700 ,2,1,1.,12.0,0.,12.0,0.,12.0,0.,12.0
1979-07-17 09:46:48.700 ,2,0,0.,12.0,0.,12.0,0.,12.0,0.,12.0
1979-07-17 09:47:00.700 ,2,0,0.,12.0,0.,12.0,0.,12.0,0.,12.0
1979-07-17 09:47:12.700 ,1,1,0.,12.0,0.,12.0,0.,12.0,0.,12.0
1979-07-17 09:47:24.700 ,1,1,0.,12.0,0.,12.0,0.,12.0,0.,12.0
1979-07-17 09:47:36.700 ,1,0,1.,12.0,0.,12.0,0.,12.0,0.,12.0
1979-07-17 09:47:48.700 ,1,0,0.,12.0,0.,12.0,0.,12.0,0.,12.0
1979-07-17 09:48:00.700 ,0,1,0.,12.0,0.,12.0,0.,12.0,0.,12.0
1979-07-17 09:48:12.700 ,0,1,0.,12.0,0.,12.0,0.,12.0,0.,12.0
1979-07-17 09:48:24.700 ,0,0,0.,12.0,0.,12.0,0.,12.0,0.,12.0
1979-07-17 09:48:36.700 ,0,0,0.,12.0,0.,12.0,0.,12.0,0.,12.0
1979-07-17 09:48:48.700 ,0,1,0.,12.0,0.,12.0,0.,12.0,0.,12.0
1979-07-17 09:49:00.700 ,0,1,0.,12.0,0.,12.0,0.,12.0,0.,12.0
1979-07-17 09:49:12.700 ,0,0,0.,12.0,0.,12.0,0.,12.0,0.,12.0
1979-07-17 09:49:24.700 ,0,0,0.,12.0,0.,12.0,0.,12.0,0.,12.0
1979-07-17 09:49:36.700 ,1,1,0.,12.0,0.,12.0,0.,12.0,0.,12.0
1979-07-17 09:49:48.700 ,1,1,0.,12.0,0.,12.0,0.,12.0,0.,12.0
1979-07-17 09:50:00.700 ,1,0,0.,12.0,0.,12.0,0.,12.0,0.,12.0
1979-07-17 09:50:12.700 ,1,0,0.,12.0,0.,12.0,0.,12.0,0.,12.0
1979-07-17 09:50:24.700 ,2,1,0.,12.0,0.,12.0,0.,12.0,0.,12.0
1979-07-17 09:50:36.700 ,2,1,0.,12.0,0.,12.0,0.,12.0,0.,12.0
1979-07-17 09:50:48.700 ,2,0,0.,12.0,0.,12.0,0.,12.0,0.,12.0
1979-07-17 09:51:00.700 ,2,0,0.,12.0,0.,12.0,0.,12.0,0.,12.0
1979-07-17 09:51:12.700 ,3,1,0.,12.0,0.,12.0,0.,12.0,0.,12.0
1979-07-17 09:51:24.700 ,3,1,0.,12.0,0.,12.0,0.,12.0,0.,12.0
1979-07-17 09:51:36.700 ,3,0,0.,12.0,0.,12.0,0.,12.0,0.,12.0
1979-07-17 09:51:48.700 ,3,0,0.,12.0,0.,12.0,0.,12.0,0.,12.0
1979-07-17 09:52:00.700 ,4,1,1.,12.0,0.,12.0,0.,12.0,0.,12.0
1979-07-17 09:52:12.700 ,4,1,0.,12.0,0.,12.0,0.,12.0,0.,12.0
1979-07-17 09:52:24.700 ,4,0,0.,12.0,0.,12.0,0.,12.0,0.,12.0
1979-07-17 09:52:36.700 ,4,0,0.,12.0,0.,12.0,0.,12.0,0.,12.0
1979-07-17 09:52:48.700 ,5,1,0.,12.0,0.,12.0,0.,12.0,0.,12.0
1979-07-17 09:53:00.700 ,5,1,0.,12.0,0.,12.0,0.,12.0,0.,12.0
1979-07-17 09:53:12.700 ,5,0,0.,12.0,0.,12.0,0.,12.0,0.,12.0
1979-07-17 09:53:24.700 ,5,0,0.,12.0,0.,12.0,0.,12.0,0.,12.0
1979-07-17 09:53:36.700 ,6,1,0.,12.0,0.,12.0,0.,12.0,0.,12.0
1979-07-17 09:53:48.700 ,6,1,0.,12.0,0.,12.0,0.,12.0,0.,12.0
1979-07-17 09:54:00.700 ,6,0,0.,12.0,0.,12.0,0.,12.0,0.,12.0
1979-07-17 09:54:12.700 ,6,0,0.,12.0,0.,12.0,0.,12.0,0.,12.0
1979-07-17 09:54:24.700 ,7,0,0.,12.0,0.,12.0,0.,12.0,0.,12.0
1979-07-17 09:54:36.700 ,7,0,0.,12.0,0.,12.0,0.,12.0,0.,12.0
1979-07-17 09:54:48.700 ,7,0,0.,12.0,0.,12.0,0.,12.0,0.,12.0
1979-07-17 09:55:00.700 ,7,0,0.,12.0,0.,12.0,0.,12.0,0.,12.0
1979-07-17 09:55:12.700 ,4,1,0.,12.0,0.,12.0,0.,12.0,0.,12.0
1979-07-17 09:55:24.700 ,4,1,0.,12.0,0.,12.0,0.,12.0,0.,12.0
1979-07-17 09:55:36.700 ,0,1,0.,12.0,0.,12.0,0.,12.0,0.,12.0
1979-07-17 09:55:48.700 ,0,1,1.,12.0,0.,12.0,0.,12.0,0.,12.0
1979-07-17 09:56:00.700 ,3,1,0.,12.0,0.,12.0,0.,12.0,0.,12.0
1979-07-17 09:56:12.700 ,3,1,0.,12.0,0.,12.0,0.,12.0,0.,12.0
1979-07-17 09:56:24.700 ,7,1,0.,12.0,0.,12.0,0.,12.0,0.,12.0
1979-07-17 09:56:36.700 ,7,1,0.,12.0,0.,12.0,0.,12.0,0.,12.0
1979-07-17 09:56:48.700 ,4,1,0.,12.0,0.,12.0,0.,12.0,0.,12.0
1979-07-17 09:57:00.700 ,4,1,0.,12.0,0.,12.0,0.,12.0,0.,12.0
1979-07-17 09:57:12.700 ,0,1,0.,12.0,0.,12.0,0.,12.0,0.,12.0
1979-07-17 09:57:24.700 ,0,1,0.,12.0,0.,12.0,0.,12.0,0.,12.0
1979-07-17 09:57:36.700 ,3,1,0.,12.0,0.,12.0,0.,12.0,0.,12.0
1979-07-17 09:57:48.700 ,3,1,0.,12.0,0.,12.0,0.,12.0,0.,12.0
1979-07-17 09:58:00.700 ,7,1,0.,12.0,0.,12.0,0.,12.0,0.,12.0
1979-07-17 09:58:12.700 ,7,1,0.,12.0,0.,12.0,0.,12.0,0.,12.0
1979-07-17 09:58:24.700 ,4,1,0.,12.0,0.,12.0,0.,12.0,0.,12.0
1979-07-17 09:58:36.700 ,4,1,0.,12.0,0.,12.0,0.,12.0,0.,12.0
1979-07-17 09:58:48.700 ,0,1,0.,12.0,0.,12.0,0.,12.0,0.,12.0
1979-07-17 09:59:00.700 ,0,1,0.,12.0,0.,12.0,0.,12.0,0.,12.0
1979-07-17 09:59:12.700 ,3,1,0.,12.0,0.,12.0,0.,12.0,0.,12.0
1979-07-17 09:59:24.700 ,3,1,0.,12.0,0.,12.0,0.,12.0,0.,12.0
1979-07-17 09:59:36.700 ,7,1,0.,12.0,0.,12.0,0.,12.0,0.,12.0
1979-07-17 09:59:48.700 ,7,1,0.,12.0,0.,12.0,0.,12.0,0.,12.0
1979-07-17 10:00:00.700 ,4,1,0.,12.0,0.,12.0,0.,12.0,0.,12.0
1979-07-17 10:00:12.700 ,4,1,0.,12.0,0.,12.0,0.,12.0,0.,12.0
1979-07-17 10:00:24.700 ,0,1,0.,12.0,0.,12.0,0.,12.0,0.,12.0
1979-07-17 10:00:36.700 ,0,1,0.,12.0,0.,12.0,0.,12.0,0.,12.0
1979-07-17 10:00:48.700 ,3,1,0.,12.0,0.,12.0,0.,12.0,0.,12.0
1979-07-17 10:01:00.700 ,3,1,1.,12.0,0.,12.0,0.,12.0,0.,12.0
1979-07-17 10:01:12.700 ,7,1,0.,12.0,0.,12.0,0.,12.0,0.,12.0
1979-07-17 10:01:24.700 ,7,1,0.,12.0,0.,12.0,0.,12.0,0.,12.0
1979-07-17 10:01:36.700 ,4,1,0.,12.0,0.,12.0,0.,12.0,0.,12.0
1979-07-17 10:01:48.700 ,4,1,0.,12.0,0.,12.0,0.,12.0,0.,12.0
1979-07-17 10:02:00.700 ,0,1,0.,12.0,0.,12.0,0.,12.0,0.,12.0
1979-07-17 10:02:12.700 ,0,1,0.,12.0,0.,12.0,0.,12.0,0.,12.0
1979-07-17 10:02:24.700 ,3,1,0.,12.0,0.,12.0,0.,12.0,0.,12.0
1979-07-17 10:02:36.700 ,3,1,0.,12.0,0.,12.0,0.,12.0,0.,12.0
1979-07-17 10:02:48.700 ,7,1,0.,12.0,0.,12.0,0.,12.0,0.,12.0
1979-07-17 10:03:00.700 ,7,1,0.,12.0,0.,12.0,0.,12.0,0.,12.0
1979-07-17 10:03:12.700 ,4,1,0.,12.0,0.,12.0,0.,12.0,0.,12.0
1979-07-17 10:03:24.700 ,4,1,0.,12.0,0.,12.0,0.,12.0,0.,12.0
1979-07-17 10:03:36.700 ,0,1,0.,12.0,0.,12.0,0.,12.0,0.,12.0
1979-07-17 10:03:48.700 ,0,1,0.,12.0,0.,12.0,0.,12.0,0.,12.0
1979-07-17 10:04:00.700 ,3,1,0.,12.0,0.,12.0,0.,12.0,0.,12.0
1979-07-17 10:04:12.700 ,3,1,0.,12.0,0.,12.0,0.,12.0,0.,12.0
1979-07-17 10:04:24.700 ,7,1,0.,12.0,0.,12.0,0.,12.0,0.,12.0
1979-07-17 10:04:36.700 ,7,1,0.,12.0,0.,12.0,0.,12.0,0.,12.0
1979-07-17 10:04:48.700 ,4,1,0.,12.0,0.,12.0,0.,12.0,0.,12.0
1979-07-17 10:05:00.700 ,4,1,0.,12.0,0.,12.0,0.,12.0,0.,12.0
1979-07-17 10:05:12.700 ,0,1,0.,12.0,0.,12.0,0.,12.0,0.,12.0
1979-07-17 10:05:24.700 ,0,1,0.,12.0,0.,12.0,0.,12.0,0.,12.0
1979-07-17 10:05:36.700 ,0,0,0.,12.0,0.,12.0,0.,12.0,0.,12.0
1979-07-17 10:05:48.700 ,0,0,0.,12.0,0.,12.0,0.,12.0,0.,12.0
1979-07-17 10:06:00.700 ,0,0,0.,12.0,0.,12.0,0.,12.0,0.,12.0
1979-07-17 10:06:12.700 ,0,0,0.,12.0,0.,12.0,0.,12.0,0.,12.0
1979-07-17 10:06:24.700 ,5,1,0.,12.0,0.,12.0,0.,12.0,0.,12.0
1979-07-17 10:06:36.700 ,5,1,0.,12.0,0.,12.0,0.,12.0,0.,12.0
1979-07-17 10:06:48.700 ,5,0,0.,12.0,0.,12.0,0.,12.0,0.,12.0
1979-07-17 10:07:00.700 ,5,0,0.,12.0,0.,12.0,0.,12.0,0.,12.0
1979-07-17 10:07:12.700 ,4,1,0.,12.0,0.,12.0,0.,12.0,0.,12.0
1979-07-17 10:07:24.700 ,4,1,0.,12.0,0.,12.0,0.,12.0,0.,12.0
1979-07-17 10:07:36.700 ,4,0,1.,12.0,0.,12.0,0.,12.0,0.,12.0
1979-07-17 10:07:48.700 ,4,0,0.,12.0,0.,12.0,0.,12.0,0.,12.0
1979-07-17 10:08:00.700 ,3,1,0.,12.0,0.,12.0,0.,12.0,0.,12.0
1979-07-17 10:08:12.700 ,3,1,0.,12.0,0.,12.0,0.,12.0,0.,12.0
1979-07-17 10:08:24.700 ,3,0,0.,12.0,0.,12.0,0.,12.0,0.,12.0
1979-07-17 10:08:36.700 ,3,0,0.,12.0,0.,12.0,0.,12.0,0.,12.0
1979-07-17 10:08:48.700 ,2,1,0.,12.0,0.,12.0,0.,12.0,0.,12.0
1979-07-17 10:09:00.700 ,2,1,0.,12.0,0.,12.0,0.,12.0,0.,12.0
1979-07-17 10:09:12.700 ,2,0,0.,12.0,0.,12.0,0.,12.0,0.,12.0
1979-07-17 10:09:24.700 ,2,0,0.,12.0,0.,12.0,0.,12.0,0.,12.0
1979-07-17 10:09:36.700 ,1,1,0.,12.0,0.,12.0,0.,12.0,0.,12.0
1979-07-17 10:09:48.700 ,1,1,0.,12.0,0.,12.0,0.,12.0,0.,12.0
1979-07-17 10:10:00.700 ,1,0,0.,12.0,0.,12.0,0.,12.0,0.,12.0
1979-07-17 10:10:12.700 ,1,0,0.,12.0,0.,12.0,0.,12.0,0.,12.0
1979-07-17 10:10:24.700 ,0,1,0.,12.0,0.,12.0,0.,12.0,0.,12.0
1979-07-17 10:10:36.700 ,0,1,0.,12.0,0.,12.0,0.,12.0,0.,12.0
1979-07-17 10:10:48.700 ,0,0,0.,12.0,0.,12.0,0.,12.0,0.,12.0
1979-07-17 10:11:00.700 ,0,0,0.,12.0,0.,12.0,0.,12.0,0.,12.0
1979-07-17 10:11:12.700 ,0,1,0.,12.0,0.,12.0,0.,12.0,0.,12.0
1979-07-17 10:11:24.700 ,0,1,0.,12.0,0.,12.0,0.,12.0,0.,12.0
1979-07-17 10:11:36.700 ,0,0,0.,12.0,0.,12.0,0.,12.0,0.,12.0
1979-07-17 10:11:48.700 ,0,0,0.,12.0,0.,12.0,0.,12.0,0.,12.0
1979-07-17 10:12:00.700 ,1,1,0.,12.0,0.,12.0,0.,12.0,0.,12.0
1979-07-17 10:12:12.700 ,1,1,0.,12.0,0.,12.0,0.,12.0,0.,12.0
1979-07-17 10:12:24.700 ,1,0,0.,12.0,0.,12.0,0.,12.0,0.,12.0
1979-07-17 10:12:36.700 ,1,0,0.,12.0,0.,12.0,0.,12.0,0.,12.0
1979-07-17 10:12:48.700 ,2,1,0.,12.0,0.,12.0,0.,12.0,0.,12.0
1979-07-17 10:13:00.700 ,2,1,0.,12.0,0.,12.0,0.,12.0,0.,12.0
1979-07-17 10:13:12.700 ,2,0,1.,12.0,0.,12.0,0.,12.0,0.,12.0
1979-07-17 10:13:24.700 ,2,0,0.,12.0,0.,12.0,0.,12.0,0.,12.0
1979-07-17 10:13:36.700 ,3,1,0.,12.0,0.,12.0,0.,12.0,0.,12.0
1979-07-17 10:13:48.700 ,3,1,0.,12.0,0.,12.0,0.,12.0,0.,12.0
1979-07-17 10:14:00.700 ,3,0,0.,12.0,0.,12.0,0.,12.0,0.,12.0
1979-07-17 10:14:12.700 ,3,0,0.,12.0,0.,12.0,0.,12.0,0.,12.0
1979-07-17 10:14:24.700 ,4,1,0.,12.0,0.,12.0,0.,12.0,0.,12.0
1979-07-17 10:14:36.700 ,4,1,0.,12.0,0.,12.0,0.,12.0,0.,12.0
1979-07-17 10:14:48.700 ,4,0,0.,12.0,0.,12.0,0.,12.0,0.,12.0
1979-07-17 10:15:00.700 ,4,0,0.,12.0,0.,12.0,0.,12.0,0.,12.0
1979-07-17 10:15:12.700 ,5,1,0.,12.0,0.,12.0,0.,12.0,0.,12.0
1979-07-17 10:15:24.700 ,5,1,0.,12.0,0.,12.0,0.,12.0,0.,12.0
1979-07-17 10:15:36.700 ,5,0,0.,12.0,0.,12.0,0.,12.0,0.,12.0
1979-07-17 10:15:48.700 ,5,0,0.,12.0,0.,12.0,0.,12.0,0.,12.0
1979-07-17 10:16:00.700 ,6,1,0.,12.0,0.,12.0,0.,12.0,0.,12.0
1979-07-17 10:16:12.700 ,6,1,0.,12.0,0.,12.0,0.,12.0,0.,12.0
1979-07-17 10:16:24.700 ,6,0,0.,12.0,0.,12.0,0.,12.0,0.,12.0
1979-07-17 10:16:36.700 ,6,0,0.,12.0,0.,12.0,0.,12.0,0.,12.0
1979-07-17 10:16:48.700 ,7,1,0.,12.0,0.,12.0,0.,12.0,0.,12.0
1979-07-17 10:17:00.700 ,7,1,0.,12.0,0.,12.0,0.,12.0,0.,12.0
1979-07-17 10:17:12.700 ,7,0,0.,12.0,0.,12.0,0.,12.0,0.,12.0
1979-07-17 10:17:24.700 ,7,0,0.,12.0,0.,12.0,0.,12.0,0.,12.0